Voltar ao catálogo

STARLINK-34474

AtivoComunicaçõesVLEO
NORAD 64474·PAYLOAD·🇺🇸 United States

Lançado Jun 23, 2025 de Cape Canaveral Space Force Station

Loading…

Próximas Passagens (próximas 24 horas)

TLE

AtualizadoSource: CelesTrak SupGP

Época: Sep 15, 2026, 02:45 UTC

1 64474C 25133C   26258.11506944  .00049183  00000+0  14529-2 0  2587
2 64474  53.1586 315.1210 0001193  92.3724 351.6605 15.34371424    10

Acompanhe STARLINK-34474 em tempo real com AllMySat

Download on the App Store